Погода Душанбе

Погода Душанбе : погода сейчас, прогноз погоды и архив. Всё, что Вы хотите узнать о погоде Душанбе!

Поиск расширенной информации на нашем сайте:

Полезная информация: Море в Испании. Испания Oasis park какое там море.

Другие новости

Новости СМИ2

Главная страница сайта

Новости сайта

03.07.2017

Напоминаем, что на нашем специализированном сайте Метеоцентр.Азия вы можете получить высокодетализированные автоматические прогнозы погоды по пунктам России, СНГ и мира в авиационном формате (включающие направление и скорость ветра, видимость, явления погоды, количество и форму облачности, нижнюю и верхнюю границу облачности).

Рекомендуем: Самые интересные смотреть новые трейлеры онлайн абсолютно бесплатно

Погода Душанбе - сегодня

Время (UTC), дата Ветер
(°,м/с) 
Видим.   Явления Облачность Т
(°С)
Тd
(°С)
f(%) Тe
(°С)
Pmin
(гПа)
dP
(гПа)
Po
(мм)
O2
(г/м3)
Тmin Tmax R s Состояние
почвы
03 18.09.17 тихо ()   20000 м    3/0 средняя 
[Ac trans]
+17.9 +9.3 57 +20  1012.4  -0.6  692  260  +11.9        полностью
покрыта
пылью 
06 18.09.17 230 (ЮЗ) 20000 м    6/4 1000 м средняя, верхняя 
[Sc|As op|Ci fib]
+25.4 +9.7 37 +28  1009  -0.9  692  253  +11.9         
09 18.09.17 230 (ЮЗ) 20000 м    3/0 средняя 
[As op]
+30 +8.5 26 +31  1005.7  -1.8  690  249           
12 18.09.17 тихо ()   20000 м    3/3 1000 м верхняя 
[Sc|Ci fib]
+30.3 +10.7 30 +34  1004.9  -0.6  690  248           
15 18.09.17 тихо ()   н/о    4/4 1000 м верхняя 
[Sc|Ci fib]
+20.3 +7.7 44 +20  1008.6  0.4  690  257          мокрая 
18 18.09.17 тихо ()   н/о    4/4 1000 м 
[Sc]
+16 +6.7 54 +16  1011.6  1.5  691  262    +31       
21 18.09.17 тихо ()   н/о    4/4 1000 м верхняя 
[Sc|Ci fib]
+13.7 +7.1 64 +14  1012.7  0.4  691  264           
00 19.09.17 тихо ()   н/о    4/4 1000 м 
+12.5 +6.4 66 +13  1012.9  2.1  691  265           
03 19.09.17 тихо ()   20000 м    3/0 верхняя 
[Ci sp]
+17.9 +8.9 56 +19  1012.8  1.4  692  260  +11.7        сухая 
06 19.09.17 230 (ЮЗ) 20000 м    3/0 средняя, верхняя 
[Sc|As op|Ci fib]
+25.3 +9.2 36 +27  997.1  -1.2  683  250          мокрый или
старый снег
50-90% 
09 19.09.17 тихо ()   20000 м    3/0 верхняя 
[Ci sp]
+29.8 +8.1 26 +30  1003.6  -2.9  689  249           
12 19.09.17 тихо ()   20000 м    3/0 верхняя 
[Ci sp]
+30.4 +10 28 +33  1002.2  -1  688  248           
15 19.09.17 тихо ()   н/о    3/3 1000 м 
[Cu med, cong]
+23.9 +9.7 41 +26  1006.1  1.7  689  254    +31.3       
18 19.09.17 тихо ()   н/о    3/3 1000 м 
[Cu med, cong]
+19.5 +10 54 +22  1010.4  2.6  691  258    +31.3       
21 19.09.17 тихо ()   н/о    ясно 1000 м 
+16.9 +9.7 62 +19  1012.1  0.9  692  261           
00 20.09.17 тихо ()   н/о    ясно 
+14.6 +9.2 70 +15  1001.5               
03 20.09.17 тихо ()   20000 м    3/0 верхняя 
[Ci sp]
+18.2 +9.7 58 +21  1012.7  0.3  693  260  +13.2        сухая 
06 20.09.17 тихо ()   20000 м    3/0 верхняя 
[Ci sp]
+26 +8.8 34 +27  1005.1  -4.8  689  252          мокрая 
09 20.09.17 тихо ()   20000 м    3/0 
+29.9 +8.6 26 +30    4.5             
12 20.09.17 230 (ЮЗ) 20000 м    3/0 
+30.6 +10 28 +31               
15 20.09.17 тихо ()   н/о    4/4 1000 м 
[Sc]
+23.8 +8.2 37 +24  1004.5  1.8  688  254    +31.5       
18 20.09.17 тихо ()   н/о    3/3 1000 м верхняя 
[Sc|Ci fib]
+18.7 +8.9 53 +20  1006.8  0.7  689  258    +31.5       
21 20.09.17 тихо ()   н/о    3/3 1000 м средняя 
[Ac trans]
+14.9 +7.1 60 +15  1009.5  1.3  690  262           
00 21.09.17 тихо ()   н/о    4/0 средняя, верхняя 
[As op|Ci fib]
+13.2 +7 66 +13  1011.4  1.1  690  264           
03 21.09.17 тихо ()   20000 м    3/0 верхняя 
[Ci ing]
+17.6 +8.8 56 +19  1009.9  690  260  +11.8        сухая 
Время (UTC), дата Ветер
(°,м/с) 
Видим.   Явления Облачность Т
(°С)
Тd
(°С)
f(%) Тe
(°С)
Pmin
(гПа)
dP
(гПа)
Po
(мм)
O2
(г/м3)
Тmin Tmax R s Состояние
почвы

Для получения пояснительной информации подведите курсор к названию столбца.

ПОГОДА Душанбе - архив

Всё, что Вы хотите узнать о погоде Душанбе - удобно и подробно!

Выберите нужную дату (начиная с 1 января 2015* года) и нажмите кнопку "Найти".
Будут отображены архивные сводки погоды по пункту Душанбе, начиная с указанной даты.


Отображать данные в формате CSV (для использования в таблицах Excel)


Внимание! Наш архив погоды предназначен исключительно для личного некоммерческого использования в познавательных целях. Если Вам необходимы официальные справки о состоянии погоды (для производственных, юридических, коммерческих и т.п. целей), обращайтесь в органы Росгидромета.

*Примечание: данная дата относится к архиву по метеостанциям СССР (Россия, СНГ, Балтия).
Архив по метеостанциям Зарубежной Европы и Азии (кроме Китая) хранится 10 дней, по другим регионам земного шара (Китай, Африка, Америка, Австралия, Океания) - 1 день.

Душанбе - район местоположения метеостанции


Название, широта, долгота, высота метеостанции:
Душанбе 38.6°ш. 68.8°д. 800 м над ур. моря [Таджикистан]

Дополнительная информация

В oтличие oт бoльшинства пoгoдных сайтoв мы публикуем пoдрoбную метеoинфoрмацию в детальнoм прoфессиoнальнoм фoрмате.

Характеристики температуры и влажнoсти вoздуха измеряются на высoте 2 м в тени вдали oт зданий и деревьев.
Скoрoсть ветра измеряется на высoте 10 м (на урoвне рoста челoвека скoрoсть ветра ниже в 1.5-2 раза). Если метеoстанция нахoдится в гoрoде или в лесу, тo скoрoсть ветра занижена на 2-4 м/с пo сравнению с oткрытым местoм. Скoрoсть ветра над акватoриями крупных рек и oзёр, а также на вершинах хoлмoв на 2-5 м/с выше, чем в oбычных услoвиях.
Атмoсфернoе давление в разных тoчках местнoсти мoжет значительнo oтличаться oт давления на метеoстанции, в зависимoсти oт услoвий рельефа (при пoдъёме на 10 м давление пoнижается примернo на 1 мм рт.ст.).